Preview of NWS' New Version of Forecast
This preview is not operational and should not be used for support decisions.

Regional Weather Roundup (RWR)

Issued by National Weather Service (NWS)

                            
000
ASUS46 KSEW 190310
RWRWA 

WASHINGTON REGIONAL WEATHER ROUNDUP
NATIONAL WEATHER SERVICE SEATTLE WA
800 PM PDT TUE JUN 18 2019

NOTE:"FAIR" INDICATES FEW OR NO CLOUDS BELOW 12,000 FEET WITH NO 
SIGNIFICANT WEATHER AND/OR OBSTRUCTIONS TO VISIBILITY.

WAZ507-509-555>559-190400-
SEATTLE, TACOMA, EVERETT, AND VICINITY
  
CITY           SKY/WX    TMP DP  RH WIND       PRES   REMARKS
EVERETT        CLOUDY    59  51  75 N5        30.20F                  
BOEING FIELD   CLOUDY    63  55  75 NE6       30.17F                  
RENTON         CLOUDY    64  56  75 CALM      30.17F                  
SEATAC AIRPORT MOCLDY    64  54  69 E6        30.18F                  
JBLM-MCCHORD   MOCLDY    66  54  65 W12       30.18S                  
PUYALLUP       CLOUDY    64  50  59 SW6G12    30.18F                  
BREMERTON      CLOUDY    58  54  86 NE9       30.18S                  
JBLM-FT LEWIS  CLEAR     65  54  67 S10       30.17S                  
TACOMA NARROWS MOCLDY    64  48  56 SW9       30.18S                  
$$
 
WAZ001-503-506-510-514-515-190400-
NORTH INTERIOR
  
CITY           SKY/WX    TMP DP  RH WIND       PRES   REMARKS
BELLINGHAM     CLOUDY    61  49  64 S13G22    30.13F                  
FRIDAY HARBOR  SUNNY     67  43  41 SW9       30.16R                  
EASTSOUND      CLOUDY    64  50  59 S12       30.12S                  
PORT ANGELES   SUNNY     55  47  74 W21G30    30.21R                  
EDIZ HOOK      FAIR      54  48  81 W18       30.20S                  
PORT TOWNSEND  CLOUDY    59  48  67 VRB7      30.19R                  
NAS WHIDBEY    PTCLDY    59  47  64 SW16G25   30.22S                  
ARLINGTON      MOCLDY    61  49  64 N10       30.20S                  
BURLINGTON     CLEAR     63  48  59 SW13G18   30.19R                  
$$
 
WAZ020-022-039-040-504-511-512-190400-
SOUTHWEST INTERIOR
  
CITY           SKY/WX    TMP DP  RH WIND       PRES   REMARKS
SHELTON        CLEAR     63  46  54 SW14G24   30.16S                  
OLYMPIA        CLEAR     62  46  55 SW10      30.19S                  
CHEHALIS       FAIR      61  48  63 W5G16     30.22F                  
KELSO          CLEAR     61  48  62 W9        30.24S                  
VANCOUVER      CLEAR     65  46  50 NW14G24   30.21R                  
SCAPPOOSE, OR  CLEAR     63  46  54 NW12G20   30.22R                  
PORTLAND, OR   PTCLDY    66  47  50 NW16      30.22R                  
$$
 
WAZ021-516-517-190400-
WASHINGTON COAST
  
CITY           SKY/WX    TMP DP  RH WIND       PRES   REMARKS
FORKS          CLOUDY    57  49  74 VRB5      30.27S                  
HOQUIAM        SUNNY     57  50  77 NW22G29   30.25S                  
ASTORIA, OR    MOCLDY    58  49  72 NW14      30.28S                  
$$
 
WAZ019-023-024-040-567>569-190400-
CASCADE MOUNTAINS AND COLUMBIA GORGE
  
CITY           SKY/WX    TMP DP  RH WIND       PRES   REMARKS
STAMPEDE PASS  FOG       48  46  93 VRB5      30.17F VSB 1/4          
TROUTDALE, OR  CLEAR     67  48  50 NW8       30.19R                  
HOOD RIVER, OR CLEAR     68  43  40 W7G17     30.12R                  
THE DALLES, OR PTCLDY    72  43  35 W20G28    30.05S                  
$$

WAZ026-027-041>044-520-521-190400-
EAST SLOPES
  
CITY           SKY/WX    TMP DP  RH WIND       PRES   REMARKS
OMAK           PTCLDY    81  33  17 SW7       29.83R                  
WENATCHEE      CLEAR     74  32  21 W17G26    29.94S                  
ELLENSBURG     CLEAR     66  42  41 W18G35    30.04F                  
YAKIMA         CLEAR     73  42  32 NW21      29.99R                  
SUNNYSIDE ARPT PTCLDY    77  42  28 W16       29.95                   
YAKIMA TC      FAIR      71  36  27 NW18      29.99S                  
$$

WAZ028-034-035-190400-
COLUMBIA BASIN
  
CITY           SKY/WX    TMP DP  RH WIND       PRES   REMARKS
EPHRATA        CLEAR     78  26  14 W25       29.88S                  
MOSES LAKE     PTCLDY    82  34  17 W15       29.89S                  
PASCO          PTCLDY    82  49  31 SW12      29.91S                  
RICHLAND ARPT  PTCLDY    81  50  34 MISG      29.90S                  
HERMISTON, OR  PTCLDY    76  45  33 SW20G35   29.95S                  
$$

WAZ036>038-190400-
NORTHEAST WASHINGTON
  
CITY           SKY/WX    TMP DP  RH WIND       PRES   REMARKS
SPOKANE GEIGER PTCLDY    78  40  25 SW14      29.91F                  
SPOKANE FELTS  CLEAR     80  41  24 SW14      29.90F                  
FAIRCHILD AFB  CLEAR     75  40  28 SW13      29.92F                  
COEURDALENE,ID CLEAR     74  46  36 S10       29.92F                  
DEER PARK      CLEAR     77  43  29 SW15      29.89F                  
$$

WAZ029>033-190400-
SOUTHEAST WASHINGTON
  
CITY           SKY/WX    TMP DP  RH WIND       PRES   REMARKS
PULLMAN        CLEAR     71  47  42 SW10      29.99F                  
LEWISTON, ID   CLEAR     80  44  27 NW10      29.93F                  
WALLA WALLA    PTCLDY    78  48  34 SW9       29.95S                  
PENDLETON, OR  PTCLDY    73  44  35 W15       29.98S                  
$$